This is the latest recevied weather packets stored in our database for station/object VE8SKI. If no packets are shown the sender has not sent any weather packets the latest 10 day(s).
| Time | Temp. | Humidity | Pressure | Rain* | Wind** | Luminosity | Snow |
|---|---|---|---|---|---|---|---|
| 1778045615 | 3.33° C | 62% | 1017.9 hPa | 0 mm | 2.68 m/s, 231° | - | - |
| 1778045315 | 3.33° C | 63% | 1018 hPa | 0 mm | 1.79 m/s, 139° | - | - |
| 1778045013 | 3.33° C | 62% | 1018 hPa | 0 mm | 2.24 m/s, 218° | - | - |
| 1778044714 | 3.33° C | 62% | 1018 hPa | 0 mm | 2.68 m/s, 127° | - | - |
| 1778044414 | 3.33° C | 61% | 1018 hPa | 0 mm | 3.13 m/s, 205° | - | - |
| 1778044114 | 3.33° C | 62% | 1018 hPa | 0 mm | 1.79 m/s, 214° | - | - |
| 1778043815 | 3.89° C | 61% | 1018 hPa | 0 mm | 3.13 m/s, 271° | - | - |
| 1778043515 | 3.89° C | 61% | 1018 hPa | 0 mm | 2.68 m/s, 204° | - | - |
| 1778043213 | 3.89° C | 60% | 1018 hPa | 0 mm | 2.68 m/s, 285° | - | - |
| 1778042913 | 3.89° C | 61% | 1018 hPa | 0 mm | 1.79 m/s, 231° | - | - |
| 1778042614 | 3.89° C | 61% | 1018 hPa | 0 mm | 2.24 m/s, 179° | - | - |
| 1778042314 | 3.89° C | 61% | 1017.9 hPa | 0 mm | 2.24 m/s, 218° | - | - |
| 1778042015 | 3.89° C | 61% | 1017.9 hPa | 0 mm | 1.79 m/s, 207° | - | - |
| 1778041715 | 3.89° C | 61% | 1017.9 hPa | 0 mm | 1.79 m/s, 205° | - | - |
| 1778041413 | 3.89° C | 61% | 1017.9 hPa | 0 mm | 1.34 m/s, 44° | - | - |
| 1778041113 | 3.89° C | 61% | 1017.8 hPa | 0 mm | 3.13 m/s, 181° | - | - |
| 1778040814 | 3.89° C | 62% | 1017.9 hPa | 0 mm | 1.79 m/s, 160° | - | - |
| 1778040514 | 3.89° C | 62% | 1017.8 hPa | 0 mm | 0.89 m/s, 127° | - | - |
| 1778040214 | 4.44° C | 61% | 1017.8 hPa | 0 mm | 1.34 m/s, 208° | - | - |
| 1778039915 | 4.44° C | 61% | 1017.8 hPa | 0 mm | 1.79 m/s, 217° | - | - |
| 1778039612 | 4.44° C | 61% | 1017.7 hPa | 0 mm | 0 m/s | - | - |
| 1778039313 | 4.44° C | 60% | 1017.7 hPa | 0 mm | 0.89 m/s, 105° | - | - |
| 1778039013 | 5° C | 60% | 1017.6 hPa | 0 mm | 0.89 m/s, 136° | - | - |
| 1778038714 | 5° C | 60% | 1017.6 hPa | 0 mm | 0.89 m/s, 113° | - | - |
| 1778038414 | 5° C | 59% | 1017.5 hPa | 0 mm | 0.45 m/s, 149° | - | - |
* Rain latest hour (hover to see other rain measurements)
** Current wind speed in m/s (hover to see current wind gust speed)